Location: Doverdale
(52.2833°N, 2.2000°W)
Time: 02:45:22
(UTC+00:00)

Cosmos 1980 Rocket - Pass Details

Date: 02 March 2021
Orbit: 828 x 851 km, 71.0° (Epoch: 15 April)

Event Time Altitude Azimuth Distance (km) Brightness Sun altitude
Rises 00:44:08 0° 327° (NNW) 3,427 5.9 -44.7°
Reaches altitude 10° 00:47:13 10° 343° (NNW) 2,490 5.1 -44.6°
Enters shadow 00:48:16 14° 352° (N) 2,226 4.9 -44.6°
